DW3835 Weather Reports


Display with metric or nautical units.
time (UTC)temp
F
wind
direction
speed
MPH
gust
MPH
rain 1hr
in
rain 24hr
in
rain mn
in
humidity
%
barometer
mb
20260905064345 57 275 0.0 0.0 0.00 0.01 0.01 84 1012.9
20260905063402 57 275 0.0 0.0 0.00 0.01 0.01 84 1012.9
20260905062425 57 11 0.0 0.0 0.00 0.01 0.01 84 1012.9
20260905061419 57 5 0.0 0.0 0.00 0.01 0.01 84 1013.0
20260905060357 57 5 0.0 0.0 0.00 0.01 0.01 83 1013.0
20260905055347 57 5 0.0 0.0 0.00 0.01 0.01 83 1013.2
20260905054349 58 5 0.0 0.0 0.00 0.01 0.01 81 1013.2
20260905053409 58 5 0.0 0.0 0.00 0.01 0.01 81 1013.2
20260905052413 58 5 0.0 0.0 0.00 0.01 0.01 81 1013.2
20260905051437 58 5 0.0 0.0 0.00 0.01 0.01 81 1013.2
20260905050455 59 5 0.0 0.0 0.00 0.02 0.01 80 1013.3
20260905045435 59 181 0.0 0.0 0.00 0.03 0.01 80 1013.4
20260905044439 59 181 0.0 0.0 0.00 0.04 0.01 80 1013.4
20260905043422 60 181 0.0 0.0 0.00 0.04 0.01 80 1013.2
20260905040121 60 181 0.0 0.0 0.00 0.09 0.01 81 1013.1
20260905035109 60 180 0.0 0.0 0.00 0.10 0.01 81 1012.9
20260905030650 62 300 0.0 0.0 0.00 0.15 0.01 77 1012.5
20260905024510 62 99 0.0 0.0 0.00 0.20 0.01 75 1012.4
20260905023457 63 347 0.0 0.0 0.00 0.21 0.01 73 1012.4
20260905022430 63 34 0.0 0.0 0.00 0.23 0.01 73 1012.3
20260905021419 64 343 0.0 3.0 0.00 0.24 0.01 71 1012.3
20260905020351 64 44 0.0 1.0 0.00 0.24 0.01 70 1012.2
20260905015408 65 30 0.0 1.0 0.00 0.24 0.01 70 1012.3
20260905014425 65 33 0.0 5.0 0.00 0.25 0.01 70 1012.4
20260905013413 65 70 0.0 5.0 0.00 0.27 0.01 69 1012.3
20260905012417 65 64 0.0 4.0 0.00 0.27 0.01 67 1012.3
20260905011441 66 136 0.0 4.0 0.00 0.29 0.01 67 1012.3
20260905004154 68 197 0.0 5.0 0.00 0.30 0.01 63 1012.3
20260905003133 68 15 0.0 4.0 0.00 0.30 0.01 61 1012.2
20260905002129 68 243 0.0 4.0 0.00 0.30 0.01 62 1012.2
20260905001100 69 102 0.0 3.0 0.00 0.30 0.01 62 1012.2
20260904234913 69 184 1.0 8.0 0.00 0.30 0.01 62 1012.2
20260904233843 70 125 0.0 8.0 0.00 0.30 0.01 64 1012.3
20260904232825 70 339 0.0 7.0 0.00 0.30 0.01 61 1012.4
20260904231805 70 165 1.0 7.0 0.00 0.30 0.01 62 1012.4
20260904230801 70 217 1.0 3.0 0.00 0.30 0.01 60 1012.5
20260904225729 70 139 1.0 7.0 0.00 0.30 0.01 62 1012.5
20260904222407 71 179 1.0 5.0 0.00 0.30 0.01 60 1012.8
20260904221402 71 166 1.0 9.0 0.00 0.30 0.01 60 1012.8
20260904220411 72 178 1.0 9.0 0.00 0.30 0.01 60 1012.8
20260904215408 72 267 1.0 4.0 0.00 0.30 0.01 61 1012.8
20260904214344 72 168 1.0 5.0 0.00 0.30 0.01 62 1012.8
20260904213312 72 193 1.0 6.0 0.00 0.30 0.01 61 1012.9
20260904212246 72 147 1.0 6.0 0.00 0.30 0.01 61 1012.8
20260904211254 72 74 1.0 6.0 0.00 0.30 0.01 59 1012.8
20260904205055 73 78 1.0 7.0 0.00 0.30 0.01 58 1012.8
20260904204044 72 190 2.0 7.0 0.00 0.30 0.01 57 1012.7
20260904203032 72 176 1.0 6.0 0.00 0.30 0.01 56 1012.7
20260904202008 72 166 1.0 6.0 0.00 0.30 0.01 58 1012.7
20260904201001 71 214 1.0 6.0 0.00 0.30 0.01 59 1012.8
20260904195929 72 282 1.0 6.0 0.00 0.30 0.01 62 1012.7
20260904194947 72 47 1.0 6.0 0.00 0.30 0.01 62 1012.7
20260904192815 71 170 1.0 4.0 0.00 0.30 0.01 61 1012.8
20260904191821 70 186 1.0 6.0 0.00 0.30 0.01 62 1012.9
20260904190810 71 166 1.0 6.0 0.00 0.30 0.01 61 1013.0
20260904185802 70 98 2.0 8.0 0.00 0.30 0.01 61 1013.0
20260904184751 70 127 2.0 8.0 0.00 0.30 0.01 65 1013.0
20260904183749 70 119 1.0 6.0 0.00 0.30 0.01 67 1013.0
20260904182807 69 171 1.0 6.0 0.00 0.30 0.01 69 1013.0
20260904181752 68 157 2.0 6.0 0.00 0.30 0.01 68 1013.0
20260904180718 69 191 1.0 6.0 0.00 0.30 0.01 71 1012.9
20260904175709 67 143 1.0 6.0 0.00 0.30 0.01 71 1013.0
20260904174641 67 121 2.0 6.0 0.00 0.30 0.01 74 1013.0
20260904173701 66 112 2.0 6.0 0.00 0.30 0.01 73 1013.0
20260904170312 65 173 0.0 4.0 0.00 0.30 0.01 78 1012.8
20260904165329 64 115 0.0 4.0 0.00 0.30 0.01 80 1012.7
20260904162017 62 269 0.0 0.0 0.00 0.30 0.01 87 1012.4
20260904160947 62 145 0.0 2.0 0.00 0.30 0.01 88 1012.4
20260904154831 61 163 0.0 2.0 0.00 0.30 0.01 91 1012.5
20260904152721 59 232 0.0 2.0 0.00 0.30 0.01 91 1012.5
20260904151734 59 69 0.0 1.0 0.00 0.30 0.01 91 1012.4
20260904145613 58 130 0.0 0.0 0.00 0.30 0.01 91 1012.2
20260904143516 58 78 0.0 0.0 0.00 0.30 0.01 91 1012.0
20260904142448 57 257 0.0 0.0 0.00 0.30 0.01 92 1011.9
20260904141419 57 142 0.0 0.0 0.00 0.30 0.01 91 1011.8
20260904140351 58 142 0.0 0.0 0.00 0.30 0.01 91 1011.6
20260904134233 58 28 0.0 0.0 0.00 0.30 0.01 92 1011.5
20260904132110 57 89 0.0 0.0 0.00 0.30 0.01 91 1011.3
20260904131052 57 87 0.0 0.0 0.00 0.30 0.01 91 1011.3
20260904130110 57 165 0.0 0.0 0.00 0.30 0.01 91 1011.2
20260904125113 57 301 0.0 0.0 0.00 0.30 0.01 91 1011.1
20260904121911 58 325 0.0 2.0 0.00 0.30 0.01 91 1011.1
20260904120853 57 237 0.0 2.0 0.00 0.30 0.01 90 1011.0
20260904115914 58 169 0.0 1.0 0.00 0.30 0.01 90 1011.0
20260904114915 57 176 0.0 1.0 0.00 0.30 0.01 91 1011.0
20260904111606 58 34 0.0 0.0 0.00 0.30 0.01 91 1011.0
20260904110544 58 34 0.0 0.0 0.00 0.30 0.01 91 1011.0
20260904105549 58 34 0.0 0.0 0.00 0.30 0.01 91 1010.8
20260904104519 58 34 0.0 0.0 0.00 0.30 0.01 90 1010.9
20260904103508 58 333 0.0 0.0 0.00 0.30 0.01 90 1010.9
20260904101340 59 340 0.0 0.0 0.00 0.30 0.01 90 1010.8
20260904094101 59 355 0.0 1.0 0.00 0.30 0.01 91 1010.7
20260904091936 60 169 0.0 0.0 0.00 0.29 0.00 91 1010.7
20260904090908 60 169 0.0 0.0 0.00 0.29 0.00 91 1010.7
20260904084747 60 169 0.0 0.0 0.00 0.29 0.00 91 1010.6
20260904083752 61 165 0.0 0.0 0.00 0.29 0.00 91 1010.6
20260904082759 61 165 0.0 0.0 0.00 0.29 0.00 91 1010.6
20260904081815 61 164 0.0 0.0 0.00 0.29 0.00 91 1010.7
20260904080754 61 164 0.0 0.0 0.00 0.29 0.00 91 1010.6
20260904075753 61 165 0.0 0.0 0.00 0.29 0.00 91 1010.6
20260904074748 61 182 0.0 0.0 0.00 0.29 0.00 91 1010.6
20260904073808 61 182 0.0 0.0 0.00 0.29 0.00 91 1010.6
20260904072806 61 182 0.0 0.0 0.00 0.29 0.00 91 1010.5
20260904071826 61 171 0.0 0.0 0.00 0.29 0.00 91 1010.4
20260904070811 61 345 0.0 0.0 0.00 0.29 0.00 91 1010.4
20260904065811 61 335 0.0 1.0 0.00 0.29 0.28 91 1010.4